Location: Stara Lesna
(49.1528°N, 20.2911°E)
Time: 13:39:25
(UTC+02:00)

NOSS 3-2 (A) - Pass Details

Date: 21 September 2019
Orbit: 818 x 1390 km, 63.4° (Epoch: 08 October)

Event Time Altitude Azimuth Distance (km) Brightness Sun altitude
Exits shadow 02:33:11 49° 85° (E) 1,214 4.1 -33.6°
Drops below altitude 10° 02:38:27 10° 47° (NE) 2,836 6.7 -33.1°
Sets 02:41:18 0° 44° (NE) 3,884 7.7 -32.8°
